Fairbanks Eiels, AK

4:25 AM AKST on December 09, 2019 (GMT -0900)
Eielson Air Force Base

Weather History for PAEI - October, 2019

Change the Weather History Date:

Thursday, October 10, 2019

  Actual Average Record
Temperature  
Mean Temperature 34 °F -  
Max Temperature 36 °F 37 °F 62 °F (1979)
Min Temperature 32 °F 24 °F -2 °F (1961)
Degree Days  
Heating Degree Days 30    
Moisture  
Dew Point 33 °F    
Average Humidity 94    
Maximum Humidity 100    
Minimum Humidity 93    
Precipitation  
Precipitation 0.31 in - - ()
Snow  
Snow 0.00 in - - ()
Snow Depth 0.00 in    
Sea Level Pressure  
Sea Level Pressure 29.83 in    
Wind  
Wind Speed 3 mph (NW)    
Max Wind Speed 8 mph    
Max Gust Speed -    
Visibility 6 miles    
Events Fog , Rain , Snow    
Averages and records for this station are not official NWS values.
T = Trace of Precipitation, MM = Missing Value Source: NWS Daily Summary

Daily Weather History Graph

Daily Weather History Graph

Search for Another Location

Airport or City:

Astronomy

Oct. 10, 2019 Rise Set
Actual Time 8:24 AM AKDT 6:44 PM AKDT
Civil Twilight 7:35 AM AKDT 7:33 PM AKDT
Nautical Twilight 6:39 AM AKDT 8:29 PM AKDT
Astronomical Twilight 5:40 AM AKDT 9:27 PM AKDT
Moon 7:12 PM AKDT (10/10) 3:38 AM AKDT (10/10)
Length of Visible Light 11h 57m
Length of Day
10h 19m
Waxing Gibbous, 92% of the Moon is Illuminated
Oct 10
Waxing Gibbous
Oct 13
Full
Oct 21
Last Quarter
Oct 27
New
Nov 4
First Quarter

Hourly Weather History & Observations

Time (AKDT) Temp. Windchill Dew Point Humidity Pressure Visibility Wind Dir Wind Speed Gust Speed Precip Events Conditions
12:27 AM 37.4 °F 33.8 °F 35.6 °F 93% 29.94 in 10.0 mi Variable 4.6 mph - N/A   Overcast
12:30 AM 37.4 °F 33.8 °F 35.6 °F 93% 29.94 in 10.0 mi Variable 4.6 mph - N/A Rain Light Rain
12:58 AM 36.9 °F - 35.2 °F 94% 29.93 in 10.0 mi Calm Calm - 0.03 in Rain Light Rain
1:18 AM 37.4 °F 34.9 °F 35.6 °F 93% 29.90 in 10.0 mi Variable 3.5 mph - N/A Rain Light Rain
1:20 AM 37.4 °F 34.9 °F 35.6 °F 93% 29.93 in 10.0 mi NNW 3.5 mph - N/A Rain Light Rain
1:35 AM 37.4 °F 34.9 °F 35.6 °F 93% 29.92 in 10.0 mi NNW 3.5 mph - N/A Rain Light Rain
1:56 AM 36.9 °F - 35.2 °F 94% 29.92 in 8.0 mi Calm Calm - 0.03 in Rain Light Rain
2:56 AM 36.3 °F 32.5 °F 34.7 °F 94% 29.90 in 10.0 mi NNW 4.6 mph - 0.05 in Rain Light Rain
3:11 AM 35.6 °F 31.7 °F 35.6 °F 100% 29.90 in 10.0 mi NNW 4.6 mph - N/A Rain Light Rain
3:26 AM 37.4 °F 33.8 °F 35.6 °F 93% 29.88 in 10.0 mi NNW 4.6 mph - N/A Rain Light Rain
3:56 AM 36.1 °F 31.4 °F 34.5 °F 94% 29.88 in 10.0 mi WNW 5.8 mph - 0.04 in Rain Light Rain
4:26 AM 35.6 °F 29.9 °F 33.8 °F 93% 29.88 in 10.0 mi NW 6.9 mph - N/A Rain Light Rain
4:56 AM 36.0 °F 31.1 °F 34.3 °F 94% 29.87 in 10.0 mi WNW 5.8 mph - 0.01 in Rain Light Rain
6:11 AM 35.6 °F 30.7 °F 33.8 °F 93% 29.86 in 10.0 mi North 5.8 mph - N/A Rain Light Rain
6:28 AM 35.6 °F 30.7 °F 33.8 °F 93% 29.85 in 10.0 mi North 5.8 mph - N/A   Light Drizzle
6:56 AM 36.1 °F 33.5 °F 34.5 °F 94% 29.85 in 10.0 mi NNE 3.5 mph - 0.01 in Rain Light Rain
7:27 AM 35.6 °F - 33.8 °F 93% 29.85 in 10.0 mi Calm Calm - N/A   Overcast
7:56 AM 35.1 °F - 33.4 °F 94% 29.84 in 2.5 mi Calm Calm - 0.00 in   Overcast
8:10 AM 35.6 °F 32.8 °F 33.8 °F 93% 29.84 in 1.0 mi Variable 3.5 mph - N/A   Overcast
8:18 AM 35.6 °F 32.8 °F 33.8 °F 93% 29.83 in 1.0 mi SE 3.5 mph - N/A   Light Drizzle
8:34 AM 35.6 °F - 33.8 °F 93% 29.83 in 0.4 mi Calm Calm - N/A Fog Fog
8:49 AM 35.6 °F 31.7 °F 33.8 °F 93% 29.83 in 0.5 mi SE 4.6 mph - N/A Fog Fog
8:56 AM 35.2 °F 30.3 °F 33.6 °F 94% 29.83 in 0.5 mi SSE 5.8 mph - N/A Fog Fog
9:58 AM 34.2 °F 30.0 °F 32.5 °F 94% 29.82 in 1.6 mi South 4.6 mph - 0.02 in Rain Light Rain
10:13 AM 33.8 °F 29.6 °F 32.0 °F 93% 29.82 in 2.5 mi South 4.6 mph - N/A Rain Light Rain
10:25 AM 33.8 °F - 32.0 °F 93% 29.82 in 3.0 mi Calm Calm - N/A Rain Light Rain
10:36 AM 33.8 °F - 32.0 °F 93% 29.82 in 5.0 mi Calm Calm - N/A Rain , Snow Light Rain
10:56 AM 33.4 °F 30.4 °F 31.8 °F 94% 29.81 in 4.0 mi South 3.5 mph - 0.01 in Rain , Snow Light Rain
11:25 AM 33.8 °F 30.8 °F 32.0 °F 93% 29.81 in 4.0 mi South 3.5 mph - N/A Snow Light Snow
11:59 AM 33.1 °F 30.0 °F 31.5 °F 94% 29.80 in 4.0 mi SSE 3.5 mph - 0.01 in Snow Light Snow
12:23 PM 33.8 °F - 32.0 °F 93% 29.80 in 3.0 mi Calm Calm - N/A Snow Light Snow
12:57 PM 33.4 °F - 31.8 °F 94% 29.80 in 3.0 mi Calm Calm - 0.02 in Snow Light Snow
1:56 PM 33.3 °F - 31.6 °F 94% 29.80 in 2.5 mi Calm Calm - 0.01 in Snow Light Snow
2:20 PM 33.8 °F - 32.0 °F 93% 29.79 in 2.0 mi Calm Calm - N/A Snow Light Snow
2:28 PM 33.8 °F - 32.0 °F 93% 29.79 in 3.0 mi Calm Calm - N/A Snow Light Snow
2:56 PM 33.4 °F - 31.8 °F 94% 29.79 in 4.0 mi Calm Calm - 0.00 in Snow Light Snow
3:56 PM 33.8 °F - 32.0 °F 93% 29.78 in 4.0 mi Calm Calm - 0.00 in Snow Light Snow
4:56 PM 34.0 °F - 32.2 °F 93% 29.77 in 4.0 mi Calm Calm - 0.00 in Snow Light Snow
5:56 PM 34.0 °F - 32.2 °F 93% 29.77 in 4.0 mi Calm Calm - 0.00 in Snow Light Snow
6:56 PM 33.6 °F - 31.8 °F 93% 29.76 in 1.5 mi Calm Calm - 0.00 in Snow Light Snow
7:56 PM 33.1 °F - 31.3 °F 93% 29.75 in 1.5 mi Calm Calm - 0.01 in Snow Light Snow
8:56 PM 32.5 °F - 30.9 °F 94% 29.74 in 1.5 mi Calm Calm - 0.00 in Snow Light Snow
9:56 PM 32.7 °F - 31.1 °F 94% 29.73 in 1.5 mi Calm Calm - 0.00 in Snow Light Snow
10:56 PM 33.3 °F 30.2 °F 31.6 °F 94% 29.73 in 3.0 mi Variable 3.5 mph - 0.03 in Rain Light Rain
11:35 PM 33.8 °F - 32.0 °F 93% 29.72 in 10.0 mi Calm Calm - N/A Rain Light Rain
11:50 PM 33.8 °F 27.7 °F 32.0 °F 93% 29.72 in 7.0 mi NNW 6.9 mph - N/A Rain Light Rain
11:56 PM 34.0 °F 27.2 °F 32.4 °F 94% 29.72 in 7.0 mi NNW 8.1 mph - 0.03 in Rain Light Rain